Location: ????
(55.2778°N, 39.2433°E)
Time: 17:12:29
(UTC+00:00)

H-2A R/B - Pass Details

Date: 14 April 2024
Orbit: 730 x 830 km, 98.3° (Epoch: 11 May)

Event Time Altitude Azimuth Distance (km) Brightness Sun altitude
Rises 01:04:26 0° 21° (NNE) 3,182 6.2 -10.6°
Reaches altitude 10° 01:06:58 10° 32° (NNE) 2,264 5.6 -10.3°
Maximum altitude 01:11:21 30° 94° (E) 1,320 3.9 -9.8°
Drops below altitude 10° 01:15:47 10° 155° (SSE) 2,296 4.4 -9.2°
Enters shadow 01:25:33 -19° 179° (S) 5,967 6.3 -8.0°
